Other Public Products
Issued by NWS Grand Forks, ND

Home | Current Version | Previous Version | Graphics & Text | Print | Product List | Glossary On
Versions: 1 2 3 4 5 6 7 8 9 10 11 12 13 14 15 16 17 18 19 20 21 22 23 24 25 26 27 28 29 30 31 32 33 34 35 36 37 38 39 40 41 42 43 44 45 46 47 48 49 50
000
FPUS83 KFGF 211810
OPUFGF
PRAIRIE TO PINES WEATHER ROUNDUP
NATIONAL WEATHER SERVICE EASTERN NORTH DAKOTA/GRAND FORKS ND
100 PM CDT SAT APR 21 2018

 **SATELLITE DATA USED TO AUGMENT SKY COVER AT AUTOMATED STATIONS**
 *****  WEATHER ACROSS EASTERN NORTH DAKOTA  *****

CITY           SKY/WX    TMP DP  RH WIND       PRES   REMARKS
GRAND FORKS    FAIR      54  45  71 S14       30.30F
6HR MIN TEMP:  34; 6HR MAX TEMP:  54;

GRND FORKS AFB FAIR      55  45  68 S13       30.29F
GRND FORKS NWS   N/A     55  45  69 S15       30.29F
BUXTON           N/A     52  47  83 S8          N/A
DEVILS LAKE    FAIR      56  40  55 S14       30.25F
6HR MIN TEMP:  31; 6HR MAX TEMP:  57;

FARGO          FAIR      58  39  49 S12       30.32F
6HR MIN TEMP:  34; 6HR MAX TEMP:  58;

WAHPETON ARPT  FAIR      54  37  54 S10       30.34F
$$

 *****  WEATHER ACROSS CENTRAL AND WESTERN NORTH DAKOTA  *****

CITY           SKY/WX    TMP DP  RH WIND       PRES   REMARKS
JAMESTOWN      FAIR      59  40  49 S21       30.27F
6HR MIN TEMP:  33; 6HR MAX TEMP:  59;

BISMARCK       FAIR      61  35  37 S21G30    30.21F
6HR MIN TEMP:  36; 6HR MAX TEMP:  62;

MINOT          FAIR      58  40  51 S20G30    30.14F
6HR MIN TEMP:  39; 6HR MAX TEMP:  58;

MINOT AFB      FAIR      57  42  57 S25G32    30.13F
6HR MIN TEMP:  36; 6HR MAX TEMP:  57;

GARRISON         N/A     56  41  57 S21       30.15F
6HR MIN TEMP:  33; 6HR MAX TEMP:  56;

WILLISTON      FAIR      62  39  42 S16G24    30.06F
6HR MIN TEMP:  38; 6HR MAX TEMP:  62;

DICKINSON      FAIR      58  37  45 S24G32    30.11F
6HR MIN TEMP:  40; 6HR MAX TEMP:  58;

HETTINGER      FAIR      56  35  45 S23G30    30.17F
6HR MIN TEMP:  38; 6HR MAX TEMP:  57;

$$

 *****  OTHER OBSERVATIONS NORTHEAST NORTH DAKOTA  *****

CITY           SKY/WX    TMP DP  RH WIND       PRES   REMARKS
WALHALLA       FAIR      61  43  51 SW12G18   30.24F
LANGDON        FAIR      59  45  58 S17       30.24F
CAVALIER         N/A     61  43  51 S15       30.25F
GRAFTON        FAIR      59  43  55 SE12G18   30.30F
CANDO          FAIR      59  41  51 S18G26    30.24F
FORT TOTTEN      N/A     57  38  50 S13       29.95S
ROLLA          FAIR      54  46  76 S23G31    30.20F
RUGBY          FAIR      57  41  54 S21G28    30.20F
 ***** THE ABOVE OBSERVATIONS ARE NON NWS ARE NOT QUALITY
        CONTROLLED AND MAY MIS-REPORT RAIN FOR SNOW...
$$

 *****  OTHER OBSERVATIONS SOUTHEAST NORTH DAKOTA *****

CITY           SKY/WX    TMP DP  RH WIND       PRES   REMARKS
COOPERSTOWN    FAIR      54  46  76 S14       30.30F
VALLEY CITY    FAIR      54  48  82 S13       30.32F
OAKES            N/A     57  39  51 S15       30.31F
GWINNER          N/A     55  41  58 SW5       30.32F
SHEYENNE NWR     N/A     58  40  50 S9        29.95S
BUFFALO          N/A     55  38  52 E9          N/A
WYNDMERE       NOT AVBL
 ***** THE ABOVE OBSERVATIONS ARE NON NWS ARE NOT QUALITY
       CONTROLLED AND MAY MIS-REPORT RAIN FOR SNOW...
$$

  *****  WEATHER ACROSS NORTHERN MINNESOTA  *****

CITY           SKY/WX    TMP DP  RH WIND       PRES   REMARKS
FLAG ISLAND    FAIR      45  32  61 SE10      30.31F
WARROAD        FAIR      57  41  54 S8        30.31F
ROSEAU         FAIR      57  43  58 S12G18    30.31F
HALLOCK        FAIR      57  46  67 S12       30.28F
THF RVR FALLS  FAIR      56  40  55 SW15      30.32F
6HR MIN TEMP:  32; 6HR MAX TEMP:  56;

HALSTAD        NOT AVBL
FOSSTON        FAIR      55  37  50 S10       30.34F
BAUDETTE       FAIR      56  27  32 S9G22     30.32F
6HR MIN TEMP:  30; 6HR MAX TEMP:  57;

WASKISH        CLOUDY    52  32  46 W7        30.34F
CROOKSTON      FAIR      54  45  71 S12       30.33F
$$
  *****  WEATHER ACROSS CENTRAL AND WEST MINNESOTA  *****

CITY           SKY/WX    TMP DP  RH WIND       PRES   REMARKS
BEMIDJI        FAIR      54  32  43 CALM      30.33F
6HR MIN TEMP:  25; 6HR MAX TEMP:  55;

PARK RAPIDS    FAIR      54  31  41 SW8       30.34F
6HR MIN TEMP:  29; 6HR MAX TEMP:  55;

WADENA         FAIR      54  32  43 SW5       30.35F
DETROIT LAKES  FAIR      55  32  41 S7        30.35F
MOORHEAD       FAIR      55  41  58 S10       30.34F
FERGUS FALLS   FAIR      55  36  47 S9        30.32F
ELBOW LAKE     FAIR      55  35  47 S9        30.35F
6HR MIN TEMP:  33; 6HR MAX TEMP:  55;

MORRIS MN      FAIR      54  37  54 S12       30.36F
STAPLES        FAIR      54  28  37 CALM      30.37F
WHEATON        FAIR      54  39  58 S7        30.36F
$$
  *****  WEATHER ELSEWHERE ACROSS MINNESOTA  *****

CITY           SKY/WX    TMP DP  RH WIND       PRES   REMARKS
DULUTH         FAIR      54  24  31 CALM      30.36F
6HR MIN TEMP:  31; 6HR MAX TEMP:  54;

INTRNTL FALLS  FAIR      58  24  27 W8        30.33F
6HR MIN TEMP:  27; 6HR MAX TEMP:  58;

ELY            FAIR      55  19  24 CALM      30.33F
CLOQUET        FAIR      55  12  18 S10       30.36F
BRAINERD       FAIR      55  28  35 S5        30.38F
6HR MIN TEMP:  26; 6HR MAX TEMP:  55;

HIBBING        FAIR      54  22  28 VRB3      30.34F
6HR MIN TEMP:  24; 6HR MAX TEMP:  55;

ALEXANDRIA     FAIR      57  30  35 SW8       30.36F
6HR MIN TEMP:  34; 6HR MAX TEMP:  57;

SAINT CLOUD    FAIR      52  29  41 VRB3      30.38F
6HR MIN TEMP:  28; 6HR MAX TEMP:  53;

MINNEAPOLIS    FAIR      55  14  19 CALM      30.39F
6HR MIN TEMP:  38; 6HR MAX TEMP:  55;

$$

  *****  WEATHER ACROSS SOUTH DAKOTA  *****

CITY           SKY/WX    TMP DP  RH WIND       PRES   REMARKS
SIOUX FALLS    CLOUDY    47  34  60 E6        30.34S
6HR MIN TEMP:  38; 6HR MAX TEMP:  48; 6HR PCP: TRACE;

BROOKINGS      CLOUDY    48  34  58 E8        30.36S
WATERTOWN      CLOUDY    52  36  54 SE12      30.34S
6HR MIN TEMP:  36; 6HR MAX TEMP:  53;

HURON          CLOUDY    44  33  65 S8        30.34F
6HR MIN TEMP:  38; 6HR MAX TEMP:  44;

SISSETON         N/A     56  40  55 S10       30.33F
ABERDEEN       FAIR      57  38  48 S15G23    30.33F
6HR MIN TEMP:  38; 6HR MAX TEMP:  58;

MITCHELL       CLOUDY    46  37  71 CALM      30.35S
PIERRE         CLOUDY    46  41  82 SE9       30.29F
6HR MIN TEMP:  38; 6HR MAX TEMP:  47;

MOBRIDGE       PTSUNNY   56  37  49 S18       30.24F
RAPID CITY     FAIR      50  37  61 SW10G18   30.18F
6HR MIN TEMP:  38; 6HR MAX TEMP:  51;

$$

  *****  SOME WEATHER IN NEARBY STATES *****

CITY           SKY/WX    TMP DP  RH WIND       PRES   REMARKS
GLASGOW MT     FAIR      66  39  37 S14G21    29.98F
6HR MIN TEMP:  38; 6HR MAX TEMP:  66;

GREAT FALLS MT FAIR      59  31  34 SW24G33   29.98F
6HR MIN TEMP:  39; 6HR MAX TEMP:  60;

CHEYENNE WY    CLOUDY    37  33  85 VRB7      30.17S
6HR MIN TEMP:  30; 6HR MAX TEMP:  37; 6HR PCP:  0.16;

SCOTTSBLUFF NE LGT RAIN  38  38 100 SE5       30.22S
6HR MIN TEMP:  34; 6HR MAX TEMP:  39; 6HR PCP:  0.03;

OMAHA NE       CLOUDY    54  27  35 E10       30.29F
6HR MIN TEMP:  49; 6HR MAX TEMP:  54;

DES MOINES IA  CLOUDY    55  26  32 E9        30.32F
6HR MIN TEMP:  46; 6HR MAX TEMP:  55;

DAVENPORT IA   FAIR      54  28  36 E12       30.41F
6HR MIN TEMP:  43; 6HR MAX TEMP:  54;

CHICAGO IL     CLOUDY    52  25  35 VRB3      30.41F
6HR MIN TEMP:  43; 6HR MAX TEMP:  52;

EAU CLAIRE WI  FAIR      55  28  35 SW6       30.38F
6HR MIN TEMP:  32; 6HR MAX TEMP:  57;

LA CROSSE WI   FAIR      56  33  42 S16       30.41F
6HR MIN TEMP:  37; 6HR MAX TEMP:  57;

$$

  *****  SOME NATIONAL WEATHER *****

CITY           SKY/WX    TMP DP  RH WIND       PRES   REMA



USA.gov is the U.S. government's official web portal to all federal, state and local government web resources and services.